Home   Weather   Dorsten   Past weeks

Flag for Germany Past Weather in Dorsten, North Rhine-Westphalia, Germany — Yesterday and Last 2 Weeks

Now
50 °F

Partly cloudy.


Feels Like: 43 °F
Forecast: 41 / 50 °F
Wind: 22 mph from Southwest

Location: Duesseldorf

Current Time: Feb 22, 2017 at 7:27:31 am

Latest Report: Feb 22, 2017 at 6:50 am


Visibility: N/A

Pressure: 29.74 "Hg

Humidity: 82%

Dew Point: 45 °F

Location of DorstenLocation

Past Weather in Dorsten — Graph

°F

Dorsten Temperature Yesterday

Maximum temperature yesterday: 54 °F (at 12:50 pm)
Minimum temperature yesterday: 48 °F (at 6:50 am)
Average temperature yesterday: 51 °F

High & Low Weather Summary for the Past Weeks

 TemperatureHumidityPressure
High61 °F (Feb 15, 3:50 pm)100% (Feb 11, 7:50 pm)30.51 "Hg (Feb 11, 7:50 pm)
Low27 °F (Feb 13, 5:50 am)38% (Feb 14, 3:50 pm)29.77 "Hg (Feb 22, 4:50 am)
Average41 °F79%30.23 "Hg
* Reported Feb 7 6:20 am — Feb 22 6:20 am, Dorsten, Weather by CustomWeather, © 2017

Note: Actual official high and low records may vary slightly from our data, if they occured in-between our weather recording intervals... More about our weather records

Advertising

Dorsten Weather History for the Previous 24 Hours

Scroll right to see more
 ConditionsComfort  
Time TempWeatherWind HumidityBarometerVisibility
6:20 am
Wed, Feb 22
52 °FLight rain. Passing clouds.24 mph77%29.77 "HgN/A
5:50 am52 °FPartly cloudy.26 mph77%29.77 "HgN/A
5:20 am52 °FPassing clouds.22 mph77%29.77 "HgN/A
4:50 am50 °FLight rain. Overcast.23 mph88%29.77 "HgN/A
4:20 am52 °FPassing clouds.25 mph82%29.80 "HgN/A
3:50 am52 °FPassing clouds.22 mph82%29.80 "HgN/A
3:20 am52 °FMostly cloudy.23 mph82%29.80 "HgN/A
2:50 am52 °FMostly cloudy.18 mph82%29.83 "HgN/A
2:20 am52 °FPassing clouds.18 mph82%29.83 "HgN/A
1:50 am52 °FPassing clouds.18 mph82%29.83 "HgN/A
1:20 am50 °FMostly cloudy.16 mph94%29.83 "HgN/A
12:50 am50 °FMostly cloudy.18 mph94%29.86 "HgN/A
12:20 am50 °FDrizzle. Mostly cloudy.20 mph94%29.86 "Hg5 mi
11:50 pm
Tue, Feb 21
50 °FDrizzle. Mostly cloudy.16 mph94%29.89 "Hg3 mi
11:20 pm50 °FLight rain. Mostly cloudy.17 mph94%29.89 "HgN/A
10:50 pm52 °FMostly cloudy.14 mph88%29.89 "HgN/A
10:20 pm50 °FMostly cloudy.14 mph94%29.92 "HgN/A
9:50 pm50 °FPassing clouds.13 mph94%29.92 "HgN/A
9:20 pm50 °FDrizzle. Low clouds.13 mph94%29.92 "Hg4 mi
8:50 pm50 °FMostly cloudy.12 mph94%29.95 "Hg6 mi
8:20 pm50 °FPassing clouds.10 mph88%29.95 "Hg4 mi
7:50 pm50 °FLight rain. Passing clouds.12 mph88%29.95 "Hg6 mi
7:20 pm50 °FLight rain. Passing clouds.13 mph88%29.98 "HgN/A
6:50 pm50 °FPassing clouds.12 mph82%29.98 "HgN/A
6:20 pm48 °FPartly cloudy.8 mph76%29.98 "HgN/A
5:50 pm50 °FPartly sunny.8 mph71%29.98 "HgN/A
5:20 pm52 °FPartly sunny.8 mph67%29.98 "HgN/A
4:50 pm54 °FPartly sunny.8 mph58%29.98 "HgN/A
4:20 pm54 °FPartly sunny.13 mph58%29.98 "HgN/A
3:50 pm54 °FPartly sunny.12 mph58%29.98 "HgN/A
3:20 pm54 °FPartly sunny.13 mph58%29.98 "HgN/A
2:50 pm54 °FPartly sunny.14 mph58%29.98 "HgN/A
2:20 pm54 °FPartly sunny.13 mph58%29.98 "HgN/A
1:50 pm52 °FScattered clouds.14 mph67%29.98 "HgN/A
1:20 pm54 °FScattered clouds.15 mph67%29.98 "HgN/A
12:50 pm54 °FScattered clouds.13 mph72%29.98 "HgN/A
12:20 pm50 °FBroken clouds.8 mph88%30.01 "HgN/A
11:50 am50 °FBroken clouds.8 mph88%29.98 "HgN/A
11:20 am50 °FScattered showers. Broken clouds.6 mph88%30.01 "HgN/A
10:50 am50 °FSprinkles. Broken clouds.7 mph88%29.98 "HgN/A
10:20 am50 °FBroken clouds.9 mph88%29.98 "HgN/A
9:50 am50 °FBroken clouds.9 mph88%29.98 "HgN/A
9:20 am50 °FLight rain. Broken clouds.8 mph88%29.98 "HgN/A
8:50 am48 °FPartly sunny.9 mph94%29.98 "HgN/A
8:20 am48 °FBroken clouds.6 mph87%29.98 "HgN/A
7:50 am48 °FBroken clouds.6 mph87%29.95 "HgN/A
7:20 am48 °FPartly cloudy.8 mph87%29.95 "HgN/A
Weather by CustomWeather, © 2017

See weather overviewHow to use our weather pages